| time (UTC) | temp F | wind direction | speed knots | gust knots | rain 1hr in | rain 24hr in | rain mn in | humidity % | barometer mb |
| 20260904224552 | 65 | 203 | 7.8 | 19.1 | 0.00 | 0.00 | 0.00 | 43 | 1014.5 |
| 20260904223046 | 66 | 178 | 7.8 | 18.2 | 0.00 | 0.00 | 0.00 | 43 | 1014.5 |
| 20260904221601 | 66 | 171 | 6.1 | 17.4 | 0.00 | 0.00 | 0.00 | 41 | 1014.2 |
| 20260904220056 | 66 | 198 | 6.1 | 16.5 | 0.00 | 0.00 | 0.00 | 42 | 1014.3 |
| 20260904214554 | 67 | 167 | 9.6 | 23.5 | 0.00 | 0.00 | 0.00 | 40 | 1014.3 |
| 20260904213053 | 67 | 238 | 7.8 | 17.4 | 0.00 | 0.00 | 0.00 | 41 | 1014.3 |
| 20260904211550 | 67 | 165 | 10.4 | 20.0 | 0.00 | 0.00 | 0.00 | 41 | 1014.3 |
| 20260904210052 | 67 | 226 | 5.2 | 14.8 | 0.00 | 0.00 | 0.00 | 42 | 1014.3 |
| 20260904204556 | 67 | 185 | 4.3 | 14.8 | 0.00 | 0.00 | 0.00 | 43 | 1014.3 |
| 20260904203050 | 66 | 191 | 7.0 | 18.2 | 0.00 | 0.00 | 0.00 | 43 | 1014.4 |
| 20260904201552 | 65 | 200 | 11.3 | 19.1 | 0.00 | 0.00 | 0.00 | 44 | 1014.3 |
| 20260904200047 | 65 | 156 | 8.7 | 19.1 | 0.00 | 0.00 | 0.00 | 44 | 1014.3 |
| 20260904194559 | 65 | 196 | 12.2 | 23.5 | 0.00 | 0.00 | 0.00 | 44 | 1014.4 |
| 20260904193054 | 65 | 191 | 8.7 | 24.3 | 0.00 | 0.00 | 0.00 | 45 | 1014.3 |
| 20260904191546 | 65 | 181 | 9.6 | 19.1 | 0.00 | 0.00 | 0.00 | 44 | 1014.4 |
| 20260904190056 | 65 | 195 | 8.7 | 17.4 | 0.00 | 0.00 | 0.00 | 44 | 1014.4 |
| 20260904184555 | 65 | 166 | 11.3 | 24.3 | 0.00 | 0.00 | 0.00 | 44 | 1014.5 |
| 20260904183051 | 64 | 190 | 10.4 | 20.9 | 0.00 | 0.00 | 0.00 | 46 | 1014.4 |
| 20260904181553 | 63 | 169 | 10.4 | 19.1 | 0.00 | 0.00 | 0.00 | 46 | 1014.4 |
| 20260904180055 | 63 | 161 | 8.7 | 23.5 | 0.00 | 0.00 | 0.00 | 47 | 1014.4 |
| 20260904174606 | 63 | 158 | 7.8 | 21.7 | 0.00 | 0.00 | 0.00 | 48 | 1014.2 |
| 20260904173103 | 62 | 155 | 8.7 | 21.7 | 0.00 | 0.00 | 0.00 | 48 | 1014.1 |
| 20260904171557 | 62 | 183 | 10.4 | 20.9 | 0.00 | 0.00 | 0.00 | 48 | 1014.0 |
| 20260904170057 | 62 | 140 | 7.0 | 19.1 | 0.00 | 0.00 | 0.00 | 50 | 1013.8 |
| 20260904164556 | 62 | 182 | 7.0 | 15.6 | 0.00 | 0.00 | 0.00 | 51 | 1013.7 |
| 20260904163051 | 62 | 168 | 5.2 | 13.0 | 0.00 | 0.00 | 0.00 | 51 | 1013.5 |
| 20260904161550 | 61 | 162 | 6.1 | 17.4 | 0.00 | 0.00 | 0.00 | 52 | 1013.3 |
| 20260904160100 | 61 | 149 | 4.3 | 17.4 | 0.00 | 0.00 | 0.00 | 52 | 1013.2 |
| 20260904154557 | 61 | 157 | 7.0 | 15.6 | 0.00 | 0.00 | 0.00 | 52 | 1013.2 |
| 20260904153122 | 60 | 162 | 6.1 | 14.8 | 0.00 | 0.00 | 0.00 | 53 | 1013.2 |
| 20260904151545 | 60 | 153 | 4.3 | 15.6 | 0.00 | 0.00 | 0.00 | 52 | 1013.1 |
| 20260904150057 | 60 | 140 | 4.3 | 11.3 | 0.00 | 0.00 | 0.00 | 53 | 1013.1 |
| 20260904144549 | 60 | 155 | 5.2 | 11.3 | 0.00 | 0.00 | 0.00 | 53 | 1013.1 |
| 20260904143055 | 60 | 134 | 5.2 | 14.8 | 0.00 | 0.00 | 0.00 | 52 | 1012.9 |
| 20260904141557 | 60 | 159 | 5.2 | 10.4 | 0.00 | 0.00 | 0.00 | 53 | 1012.8 |
| 20260904140050 | 59 | 161 | 5.2 | 14.8 | 0.00 | 0.00 | 0.00 | 54 | 1012.6 |
| 20260904134553 | 60 | 196 | 3.5 | 14.8 | 0.00 | 0.00 | 0.00 | 53 | 1012.6 |
| 20260904133101 | 59 | 165 | 5.2 | 20.0 | 0.00 | 0.00 | 0.00 | 54 | 1012.4 |
| 20260904131626 | 60 | 206 | 4.3 | 13.0 | 0.00 | 0.00 | 0.00 | 53 | 1012.4 |
| 20260904130056 | 60 | 178 | 4.3 | 13.9 | 0.00 | 0.00 | 0.00 | 53 | 1012.2 |
| 20260904124547 | 60 | 164 | 3.5 | 14.8 | 0.00 | 0.00 | 0.00 | 53 | 1012.1 |
| 20260904123101 | 60 | 86 | 4.3 | 14.8 | 0.00 | 0.00 | 0.00 | 53 | 1012.2 |
| 20260904121554 | 60 | 159 | 2.6 | 17.4 | 0.00 | 0.00 | 0.00 | 53 | 1012.0 |
| 20260904120054 | 60 | 152 | 3.5 | 14.8 | 0.00 | 0.00 | 0.00 | 52 | 1012.0 |
| 20260904114553 | 60 | 154 | 3.5 | 9.6 | 0.00 | 0.00 | 0.00 | 52 | 1011.8 |
| 20260904113052 | 60 | 147 | 2.6 | 12.2 | 0.00 | 0.00 | 0.00 | 52 | 1011.8 |
| 20260904111553 | 60 | 156 | 2.6 | 9.6 | 0.00 | 0.00 | 0.00 | 52 | 1011.8 |
| 20260904110054 | 60 | 128 | 3.5 | 11.3 | 0.00 | 0.00 | 0.00 | 51 | 1011.9 |
| 20260904104604 | 60 | 63 | 2.6 | 9.6 | 0.00 | 0.00 | 0.00 | 51 | 1011.9 |
| 20260904103056 | 60 | 155 | 3.5 | 10.4 | 0.00 | 0.00 | 0.00 | 51 | 1011.8 |
| 20260904101551 | 60 | 167 | 2.6 | 13.9 | 0.00 | 0.00 | 0.00 | 52 | 1011.8 |
| 20260904100045 | 60 | 162 | 3.5 | 12.2 | 0.00 | 0.00 | 0.00 | 52 | 1012.0 |
| 20260904094558 | 60 | 159 | 3.5 | 8.7 | 0.00 | 0.00 | 0.00 | 52 | 1011.8 |
| 20260904093056 | 61 | 96 | 3.5 | 10.4 | 0.00 | 0.00 | 0.00 | 51 | 1011.9 |
| 20260904091606 | 61 | 171 | 3.5 | 11.3 | 0.00 | 0.00 | 0.00 | 51 | 1012.0 |
| 20260904090051 | 61 | 125 | 3.5 | 9.6 | 0.00 | 0.00 | 0.00 | 51 | 1012.1 |
| 20260904084546 | 60 | 153 | 3.5 | 11.3 | 0.00 | 0.00 | 0.00 | 51 | 1012.2 |
| 20260904083107 | 60 | 146 | 3.5 | 12.2 | 0.00 | 0.00 | 0.00 | 51 | 1012.3 |
| 20260904081550 | 60 | 167 | 4.3 | 10.4 | 0.00 | 0.00 | 0.00 | 52 | 1012.3 |
| 20260904080045 | 60 | 130 | 0.9 | 7.8 | 0.00 | 0.00 | 0.00 | 51 | 1012.4 |
| 20260904074606 | 60 | 180 | 2.6 | 7.8 | 0.00 | 0.00 | 0.00 | 51 | 1012.5 |
| 20260904073053 | 60 | 101 | 2.6 | 8.7 | 0.00 | 0.00 | 0.00 | 51 | 1012.5 |
| 20260904071547 | 60 | 177 | 3.5 | 9.6 | 0.00 | 0.00 | 0.00 | 50 | 1012.4 |
| 20260904070056 | 60 | 109 | 3.5 | 14.8 | 0.00 | 0.00 | 0.00 | 49 | 1012.3 |
| 20260904064553 | 60 | 134 | 2.6 | 10.4 | 0.00 | 0.00 | 0.00 | 49 | 1012.4 |
| 20260904063053 | 60 | 156 | 3.5 | 12.2 | 0.00 | 0.00 | 0.00 | 49 | 1012.2 |
| 20260904061546 | 60 | 178 | 5.2 | 13.9 | 0.00 | 0.00 | 0.00 | 48 | 1012.2 |
| 20260904060045 | 60 | 158 | 4.3 | 12.2 | 0.00 | 0.00 | 0.00 | 48 | 1012.3 |
| 20260904054558 | 60 | 103 | 5.2 | 12.2 | 0.00 | 0.00 | 0.00 | 48 | 1012.4 |
| 20260904053047 | 60 | 163 | 3.5 | 9.6 | 0.00 | 0.00 | 0.00 | 48 | 1012.5 |
| 20260904051548 | 61 | 173 | 4.3 | 14.8 | 0.00 | 0.00 | 0.00 | 47 | 1012.8 |
| 20260904044605 | 61 | 156 | 4.3 | 16.5 | 0.00 | 0.00 | 0.00 | 47 | 1012.9 |
| 20260904043055 | 61 | 157 | 3.5 | 13.9 | 0.00 | 0.00 | 0.00 | 46 | 1012.6 |
| 20260904041551 | 61 | 160 | 4.3 | 12.2 | 0.00 | 0.00 | 0.00 | 46 | 1012.7 |
| 20260904040103 | 61 | 185 | 4.3 | 14.8 | 0.00 | 0.00 | 0.00 | 46 | 1012.5 |
| 20260904034607 | 61 | 116 | 4.3 | 14.8 | 0.00 | 0.00 | 0.00 | 46 | 1012.3 |
| 20260904033056 | 62 | 175 | 5.2 | 16.5 | 0.00 | 0.00 | 0.00 | 46 | 1012.4 |
| 20260904031551 | 62 | 167 | 3.5 | 15.6 | 0.00 | 0.00 | 0.00 | 46 | 1012.2 |
| 20260904030046 | 62 | 123 | 3.5 | 22.6 | 0.00 | 0.00 | 0.00 | 46 | 1012.2 |
| 20260904024547 | 62 | 163 | 5.2 | 16.5 | 0.00 | 0.00 | 0.00 | 46 | 1012.2 |
| 20260904023055 | 63 | 107 | 2.6 | 13.0 | 0.00 | 0.00 | 0.00 | 45 | 1012.0 |
| 20260904021559 | 63 | 169 | 5.2 | 13.0 | 0.00 | 0.00 | 0.00 | 45 | 1012.0 |
| 20260904020057 | 63 | 173 | 5.2 | 15.6 | 0.00 | 0.00 | 0.00 | 45 | 1012.2 |
| 20260904014640 | 64 | 166 | 6.1 | 15.6 | 0.00 | 0.00 | 0.00 | 43 | 1012.2 |
| 20260904013056 | 64 | 182 | 6.1 | 14.8 | 0.00 | 0.00 | 0.00 | 43 | 1012.2 |
| 20260904011556 | 64 | 175 | 6.1 | 14.8 | 0.00 | 0.00 | 0.00 | 43 | 1012.3 |
| 20260904010107 | 65 | 161 | 5.2 | 21.7 | 0.00 | 0.00 | 0.00 | 42 | 1012.3 |
| 20260904004555 | 65 | 180 | 7.0 | 14.8 | 0.00 | 0.00 | 0.00 | 42 | 1012.5 |
| 20260904003057 | 66 | 184 | 6.1 | 17.4 | 0.00 | 0.00 | 0.00 | 42 | 1012.5 |
| 20260904001548 | 66 | 190 | 7.8 | 20.0 | 0.00 | 0.00 | 0.00 | 43 | 1012.5 |
| 20260903234550 | 66 | 155 | 7.8 | 20.9 | 0.00 | 0.00 | 0.00 | 43 | 1012.9 |
| 20260903233103 | 66 | 161 | 7.0 | 15.6 | 0.00 | 0.00 | 0.00 | 43 | 1013.1 |
| 20260903231546 | 66 | 187 | 8.7 | 20.0 | 0.00 | 0.00 | 0.00 | 43 | 1013.4 |
| 20260903230057 | 66 | 229 | 8.7 | 20.9 | 0.00 | 0.00 | 0.00 | 42 | 1013.4 |